Regional Weather Roundup
Issued by NWS

Home | Current Version | Previous Version | Graphics & Text | Print | Product List | Glossary On
Versions: 1 2 3 4 5 6 7 8 9 10 11 12 13 14 15 16 17 18 19 20 21 22 23 24 25 26 27 28 29 30 31 32 33 34 35 36 37 38 39 40 41 42 43 44 45 46 47 48 49 50
439
ASUS43 KBIS 150610
RWRND

NORTH DAKOTA REGIONAL WEATHER ROUNDUP
NATIONAL WEATHER SERVICE BISMARCK ND
1200 AM CST FRI DEC 15 2017

NOTE: "FAIR" INDICATES FEW OR NO CLOUDS BELOW 12,000 FEET WITH NO
SIGNIFICANT WEATHER AND/OR OBSTRUCTIONS TO VISIBILITY.


NDZ001>003-009>011-017-150700-
NORTHWEST NORTH DAKOTA

CITY           SKY/WX    TMP DP  RH WIND       PRES   REMARKS
WILLISTON      CLOUDY    27  21  78 CALM      29.99F
6HR MIN TEMP:  22; 6HR MAX TEMP:  30;

MINOT          CLOUDY    31  22  69 W9        29.95F
MINOT AFB      CLOUDY    30  22  72 W8        29.93F
$$

NDZ018>021-031>035-040>046-150700-
SOUTHWEST NORTH DAKOTA

CITY           SKY/WX    TMP DP  RH WIND       PRES   REMARKS
BISMARCK       CLOUDY    34  25  69 NW8       29.98F
6HR MIN TEMP:  34; 6HR MAX TEMP:  36;

DICKINSON      CLEAR     24  18  77 W8        29.96F WCI  15
GARRISON         N/A     30  21  69 NW8       29.96F
6HR MIN TEMP:  30; 6HR MAX TEMP:  34;

HETTINGER ARPT CLOUDY    18  14  84 W7        30.02F WCI   9
$$

NDZ004>008-012>016-024-026-027-054-150700-
NORTHEAST NORTH DAKOTA

CITY           SKY/WX    TMP DP  RH WIND       PRES   REMARKS
GRAND FORKS    CLOUDY    20  17  88 N12       29.99F WCI   8
GRND FRKS AFB  CLOUDY    19  16  86 N12       29.99F WCI   7
DEVILS LAKE    CLOUDY    22  20  92 E5        29.96S WCI  16
$$

NDZ022-023-025-028>030-036>039-047>053-150700-
SOUTHEAST NORTH DAKOTA

CITY           SKY/WX    TMP DP  RH WIND       PRES   REMARKS
FARGO          CLOUDY    21  19  92 NE7       29.97F WCI  12
6HR MIN TEMP:  21; 6HR MAX TEMP:  24; 6HR PCP:  0.01;

JAMESTOWN      CLOUDY    31  25  78 NW12      29.93F
$$





USA.gov is the U.S. government's official web portal to all federal, state and local government web resources and services.